KUIPER-00147

Last updated on Mon Oct 20 2025 00:02:06 GMT+0000 (Coordinated Universal Time)

1 65768U 25217G 25292.26733713 .00036233 00000+0 10408-2 0 9992 2 65768 51.8656 327.9090 0006716 180.0824 180.0162 15.35466668 3661
UTC large
Height (km)
Speed (km/s)
/
Latitude / Longitude
Inclination (degrees)
Orbital Period (minutes)
Azimuth
Elevation
Range (km)
Doppler Factor

Next 0 passes for location: London (51.5072 / 0.1276)

Sorry there are no passes over London.